When you browse on this site, cookies collect data to enhance your experience and personalize the content and advertising you see.
Visit our Privacy Policy to learn more. By continuing to use the site, you agree to this use of cookies and data.
  • In Czech Republic
  • List of Countries
  • For 7 days
  • Water Temperature
  • Weather Map
  • Weather Widgets
  • user-avatar
    Login

    Hourly Weather Mayrhofen

    Today, 18 February, Tuesday

    Time Temperature Precipitation Wind Pressure Humidity
    00:00 0°C° 0.9 mm 1 mps 618 mmHg 96%
    01:00 0°C° 0 mm 1 mps 618 mmHg 97%
    02:00 -1°C° 0.6 mm 1 mps 618 mmHg 97%
    03:00 -3°C° 0.6 mm 2 mps 618 mmHg 96%
    04:00 -3°C° 0.6 mm 2 mps 618 mmHg 96%
    05:00 -4°C° 0.3 mm 2 mps 619 mmHg 95%
    06:00 -4°C° 0.3 mm 2 mps 619 mmHg 95%
    07:00 -5°C° 0 mm 2 mps 619 mmHg 94%
    08:00 -4°C° 0 mm 2 mps 619 mmHg 92%
    09:00 -4°C° 0 mm 2 mps 620 mmHg 89%
    10:00 -1°C° 0 mm 1 mps 620 mmHg 86%
    11:00 -2°C° 0 mm 2 mps 620 mmHg 84%
    12:00 -2°C° 0 mm 2 mps 620 mmHg 83%
    13:00 -1°C° 0 mm 2 mps 620 mmHg 83%
    14:00 0°C° 0 mm 1 mps 620 mmHg 81%
    15:00 0°C° 0 mm 1 mps 620 mmHg 79%
    16:00 0°C° 0 mm 1 mps 619 mmHg 77%
    17:00 -2°C° 0 mm 1 mps 619 mmHg 81%
    18:00 -3°C° 0 mm 1 mps 619 mmHg 85%
    19:00 -6°C° 0 mm 1 mps 618 mmHg 89%
    20:00 -6°C° 0 mm 1 mps 618 mmHg 88%
    21:00 -7°C° 0 mm 1 mps 618 mmHg 87%
    22:00 -7°C° 0 mm 1 mps 618 mmHg 86%
    23:00 -7°C° 0 mm 1 mps 618 mmHg 85%

    Tomorrow, 19 February, Wednesday

    Time Temperature Precipitation Wind Pressure Humidity
    00:00 -7°C° 0 mm 1 mps 617 mmHg 84%
    01:00 -7°C° 0 mm 1 mps 617 mmHg 82%
    02:00 -7°C° 0 mm 1 mps 616 mmHg 80%
    03:00 -8°C° 0 mm 1 mps 616 mmHg 78%
    04:00 -8°C° 0 mm 1 mps 615 mmHg 75%
    05:00 -8°C° 0 mm 1 mps 615 mmHg 74%
    06:00 -8°C° 0 mm 1 mps 615 mmHg 72%
    07:00 -7°C° 0 mm 1 mps 615 mmHg 71%
    08:00 -6°C° 0 mm 1 mps 616 mmHg 67%
    09:00 -3°C° 0 mm 1 mps 616 mmHg 64%
    10:00 -2°C° 0 mm 1 mps 616 mmHg 60%
    11:00 -1°C° 0 mm 1 mps 616 mmHg 63%
    12:00 -1°C° 0 mm 1 mps 616 mmHg 66%
    13:00 0°C° 0 mm 1 mps 616 mmHg 68%
    14:00 -3°C° 0.5 mm 2 mps 616 mmHg 71%
    15:00 -4°C° 0.5 mm 3 mps 616 mmHg 75%
    16:00 -5°C° 0.5 mm 3 mps 616 mmHg 78%
    17:00 -6°C° 0.4 mm 3 mps 616 mmHg 82%
    18:00 -6°C° 0.4 mm 2 mps 616 mmHg 87%
    19:00 -8°C° 0.4 mm 2 mps 616 mmHg 91%
    20:00 -8°C° 0.2 mm 2 mps 616 mmHg 92%
    21:00 -8°C° 0.2 mm 2 mps 617 mmHg 92%
    22:00 -8°C° 0.2 mm 1 mps 617 mmHg 92%
    23:00 -8°C° 0.1 mm 1 mps 617 mmHg 89%

    Day after tomorrow, 20 February, Thursday

    Time Temperature Precipitation Wind Pressure Humidity
    00:00 -10°C° 0.1 mm 2 mps 616 mmHg 87%
    01:00 -10°C° 0.1 mm 2 mps 616 mmHg 85%
    02:00 -10°C° 0 mm 2 mps 616 mmHg 82%
    03:00 -10°C° 0 mm 2 mps 616 mmHg 79%
    04:00 -9°C° 0 mm 2 mps 616 mmHg 75%
    05:00 -8°C° 0 mm 1 mps 616 mmHg 72%
    06:00 -7°C° 0 mm 1 mps 616 mmHg 70%
    07:00 -7°C° 0 mm 1 mps 616 mmHg 67%
    08:00 -4°C° 0 mm 1 mps 617 mmHg 64%
    09:00 -2°C° 0 mm 1 mps 618 mmHg 62%
    10:00 -2°C° 0 mm 0 mps 618 mmHg 59%
    11:00 -1°C° 0 mm 0 mps 618 mmHg 62%
    12:00 0°C° 0 mm 0 mps 618 mmHg 65%
    13:00 +1°C° 0 mm 0 mps 618 mmHg 67%
    14:00 +2°C° 0 mm 1 mps 618 mmHg 69%
    15:00 +2°C° 0 mm 1 mps 617 mmHg 70%
    16:00 +2°C° 0 mm 1 mps 617 mmHg 71%
    17:00 +1°C° 0 mm 1 mps 617 mmHg 71%
    18:00 -1°C° 0 mm 1 mps 616 mmHg 72%
    19:00 -2°C° 0 mm 1 mps 616 mmHg 72%
    20:00 -2°C° 0 mm 1 mps 616 mmHg 70%
    21:00 -2°C° 0 mm 1 mps 616 mmHg 67%
    22:00 -2°C° 0 mm 1 mps 616 mmHg 65%
    23:00 -3°C° 0 mm 1 mps 616 mmHg 64%

    21 February, Friday

    Time Temperature Precipitation Wind Pressure Humidity
    00:00 -3°C° 0 mm 1 mps 616 mmHg 63%
    01:00 -3°C° 0 mm 1 mps 616 mmHg 62%
    02:00 -4°C° 0 mm 1 mps 616 mmHg 68%
    03:00 -6°C° 0 mm 2 mps 616 mmHg 73%
    04:00 -6°C° 0 mm 2 mps 616 mmHg 78%
    05:00 -6°C° 0 mm 2 mps 616 mmHg 77%
    06:00 -6°C° 0 mm 2 mps 617 mmHg 77%
    07:00 -6°C° 0 mm 2 mps 617 mmHg 76%
    14:00 -1°C° 0 mm 2 mps 621 mmHg 89%
    15:00 -3°C° 0 mm 2 mps 621 mmHg 84%
    16:00 -3°C° 0 mm 2 mps 620 mmHg 83%
    17:00 -4°C° 0 mm 2 mps 621 mmHg 85%
    18:00 -6°C° 0 mm 2 mps 621 mmHg 87%
    19:00 -6°C° 0 mm 1 mps 621 mmHg 89%
    20:00 -6°C° 0 mm 1 mps 621 mmHg 85%
    21:00 -6°C° 0 mm 1 mps 621 mmHg 80%
    22:00 -7°C° 0 mm 1 mps 621 mmHg 76%
    23:00 -6°C° 0 mm 1 mps 621 mmHg 70%

    22 February, Saturday

    Time Temperature Precipitation Wind Pressure Humidity
    00:00 -6°C° 0 mm 1 mps 621 mmHg 64%
    01:00 -6°C° 0 mm 1 mps 621 mmHg 58%
    02:00 -4°C° 0 mm 1 mps 621 mmHg 56%
    03:00 -4°C° 0 mm 1 mps 621 mmHg 54%
    04:00 -4°C° 0 mm 1 mps 621 mmHg 51%
    05:00 -4°C° 0 mm 1 mps 622 mmHg 50%
    06:00 -4°C° 0 mm 1 mps 622 mmHg 48%
    07:00 -4°C° 0 mm 1 mps 622 mmHg 46%
    08:00 -2°C° 0 mm 1 mps 623 mmHg 49%
    09:00 0°C° 0 mm 1 mps 623 mmHg 52%
    10:00 +3°C° 0 mm 1 mps 624 mmHg 55%
    11:00 +3°C° 0 mm 1 mps 624 mmHg 60%
    12:00 +4°C° 0 mm 1 mps 625 mmHg 64%
    13:00 +4°C° 0 mm 0 mps 625 mmHg 68%
    14:00 +4°C° 0 mm 0 mps 624 mmHg 68%
    15:00 +4°C° 0 mm 0 mps 624 mmHg 69%
    16:00 +3°C° 0 mm 0 mps 623 mmHg 69%
    17:00 +3°C° 0 mm 1 mps 623 mmHg 65%
    18:00 +2°C° 0 mm 1 mps 623 mmHg 61%
    19:00 0°C° 0 mm 1 mps 623 mmHg 57%
    20:00 0°C° 0 mm 1 mps 623 mmHg 56%
    21:00 -2°C° 0 mm 2 mps 623 mmHg 56%
    22:00 -2°C° 0 mm 2 mps 623 mmHg 55%
    23:00 -2°C° 0 mm 2 mps 623 mmHg 52%

    23 February, Sunday

    Time Temperature Precipitation Wind Pressure Humidity
    00:00 -2°C° 0 mm 2 mps 623 mmHg 48%
    01:00 +1°C° 0 mm 1 mps 623 mmHg 45%
    02:00 -1°C° 0 mm 2 mps 623 mmHg 44%
    03:00 -1°C° 0 mm 2 mps 623 mmHg 42%
    04:00 -1°C° 0 mm 2 mps 623 mmHg 41%
    05:00 -1°C° 0 mm 2 mps 623 mmHg 40%
    06:00 -1°C° 0 mm 2 mps 623 mmHg 38%
    07:00 -1°C° 0 mm 2 mps 623 mmHg 37%
    08:00 +2°C° 0 mm 1 mps 623 mmHg 44%
    09:00 +4°C° 0 mm 1 mps 624 mmHg 51%
    10:00 +5°C° 0 mm 1 mps 624 mmHg 58%
    11:00 +6°C° 0 mm 1 mps 624 mmHg 61%
    12:00 +7°C° 0 mm 1 mps 624 mmHg 64%
    13:00 +7°C° 0 mm 1 mps 624 mmHg 67%
    14:00 +7°C° 0 mm 1 mps 623 mmHg 68%
    15:00 +6°C° 0 mm 1 mps 622 mmHg 69%
    16:00 +6°C° 0 mm 1 mps 622 mmHg 70%
    17:00 +5°C° 0 mm 1 mps 622 mmHg 65%
    18:00 +2°C° 0 mm 2 mps 621 mmHg 59%
    19:00 +1°C° 0 mm 2 mps 621 mmHg 54%
    20:00 +1°C° 0 mm 2 mps 621 mmHg 52%
    21:00 +1°C° 0 mm 2 mps 621 mmHg 50%
    22:00 +1°C° 0 mm 2 mps 621 mmHg 48%
    23:00 -1°C° 0 mm 2 mps 621 mmHg 48%
    Show more